Weather History for Bentonville, AR

Change the Weather History Date:

Sunday, December 11, 2011

  Actual Average Record
Temperature  
Mean Temperature 38 °F -  
Max Temperature 53 °F 50 °F 67 °F (1990)
Min Temperature 24 °F 26 °F 10 °F (1957)
Degree Days  
Heating Degree Days 26    
Moisture  
Dew Point 24 °F    
Average Humidity 62    
Maximum Humidity 93    
Minimum Humidity 33    
Precipitation  
Precipitation 0.00 in - - ()
Sea Level Pressure  
Sea Level Pressure 30.37 in    
Wind  
Wind Speed 4 mph (South)    
Max Wind Speed 10 mph    
Max Gust Speed -    
Visibility 10 miles    
Events      
Averages and records for this station are not official NWS values.
T = Trace of Precipitation, MM = Missing Value Source: NWS Daily Summary

Daily Weather History Graph

Daily Weather History Graph

Search for Another Location

Airport:

Trip Planner

Search our weather history database for the weather conditions in past years. The results will help you decide how hot, cold, wet, or windy it might be!

Date:

Astronomy

Dec. 11, 2011 Rise Set
Actual Time 7:18 AM CST 5:02 PM CST
Civil Twilight 6:49 AM CST 5:30 PM CST
Nautical Twilight 6:17 AM CST 6:02 PM CST
Astronomical Twilight 5:45 AM CST 6:34 PM CST
Moon 6:12 PM CST 8:06 AM CST
Length of Visible Light 10h 41m
Length of Day
9h 43m
Full, 99% of the Moon is Illuminated
Dec 11
Full
Dec 17
Last Quarter
Dec 24
New
Jan 1
First Quarter
Jan 9
Full

Hourly Weather History & Observations

Time (CST) Temp. Windchill Dew Point Humidity Pressure Visibility Wind Dir Wind Speed Gust Speed Precip Events Conditions
12:15 AM 28.4 °F - 23.0 °F 80% 30.45 in 10.0 mi Calm Calm - N/A   Clear
12:35 AM 26.6 °F 20.0 °F 21.2 °F 80% 30.45 in 10.0 mi SSE 5.8 mph - N/A   Clear
12:55 AM 26.6 °F 22.6 °F 23.0 °F 86% 30.45 in 9.0 mi SSE 3.5 mph - N/A   Clear
1:15 AM 28.4 °F - 26.6 °F 93% 30.45 in 9.0 mi Calm Calm - N/A   Clear
1:35 AM 30.2 °F 26.7 °F 24.8 °F 80% 30.45 in 8.0 mi South 3.5 mph - N/A   Clear
1:55 AM 28.4 °F 24.6 °F 24.8 °F 86% 30.45 in 8.0 mi South 3.5 mph - N/A   Clear
2:15 AM 28.4 °F 24.6 °F 24.8 °F 86% 30.45 in 8.0 mi South 3.5 mph - N/A   Clear
2:35 AM 26.6 °F 22.6 °F 24.8 °F 93% 30.45 in 8.0 mi South 3.5 mph - N/A   Clear
3:15 AM 26.6 °F - 24.8 °F 93% 30.43 in 8.0 mi Calm Calm - N/A   Clear
3:35 AM 28.4 °F - 23.0 °F 80% 30.42 in 9.0 mi Calm Calm - N/A   Clear
3:55 AM 26.6 °F - 24.8 °F 93% 30.42 in 9.0 mi Calm Calm - N/A   Clear
4:15 AM 26.6 °F - 24.8 °F 93% 30.42 in 9.0 mi Calm Calm - N/A   Clear
4:35 AM 26.6 °F 21.2 °F 23.0 °F 86% 30.41 in 10.0 mi SSE 4.6 mph - N/A   Clear
4:55 AM 26.6 °F 21.2 °F 21.2 °F 80% 30.40 in 9.0 mi SE 4.6 mph - N/A   Clear
5:15 AM 26.6 °F 21.2 °F 21.2 °F 80% 30.40 in 9.0 mi SSE 4.6 mph - N/A   Clear
5:35 AM 26.6 °F 21.2 °F 23.0 °F 86% 30.41 in 10.0 mi South 4.6 mph - N/A   Clear
5:55 AM 26.6 °F 21.2 °F 21.2 °F 80% 30.41 in 10.0 mi SSE 4.6 mph - N/A   Clear
6:15 AM 26.6 °F 21.2 °F 23.0 °F 86% 30.41 in 10.0 mi SSE 4.6 mph - N/A   Clear
6:35 AM 24.8 °F 19.1 °F 21.2 °F 86% 30.41 in 10.0 mi SE 4.6 mph - N/A   Clear
6:55 AM 24.8 °F 19.1 °F 21.2 °F 86% 30.41 in 10.0 mi SE 4.6 mph - N/A   Clear
7:15 AM 26.6 °F 22.6 °F 23.0 °F 86% 30.41 in 10.0 mi SE 3.5 mph - N/A   Clear
7:35 AM 26.6 °F - 23.0 °F 86% 30.41 in 10.0 mi Calm Calm - N/A   Clear
7:55 AM 26.6 °F 21.2 °F 23.0 °F 86% 30.41 in 10.0 mi SSE 4.6 mph - N/A   Clear
8:15 AM 28.4 °F 23.3 °F 24.8 °F 86% 30.42 in 10.0 mi SE 4.6 mph - N/A   Clear
8:35 AM 30.2 °F 25.4 °F 26.6 °F 86% 30.42 in 10.0 mi SE 4.6 mph - N/A   Clear
9:15 AM 35.6 °F 31.7 °F 28.4 °F 75% 30.42 in 10.0 mi SSE 4.6 mph - N/A   Clear
9:35 AM 37.4 °F 34.9 °F 30.2 °F 75% 30.43 in 10.0 mi South 3.5 mph - N/A   Clear
9:55 AM 39.2 °F 35.0 °F 30.2 °F 70% 30.43 in 10.0 mi South 5.8 mph - N/A   Clear
10:15 AM 42.8 °F 39.3 °F 30.2 °F 61% 30.43 in 10.0 mi SSW 5.8 mph - N/A   Clear
10:35 AM 44.6 °F 43.1 °F 32.0 °F 61% 30.43 in 10.0 mi South 3.5 mph - N/A   Clear
11:15 AM 46.4 °F 42.9 °F 32.0 °F 57% 30.41 in 10.0 mi South 6.9 mph - N/A   Clear
11:35 AM 48.2 °F - 30.2 °F 50% 30.40 in 10.0 mi South 6.9 mph - N/A   Clear
12:15 PM 48.2 °F - 28.4 °F 46% 30.38 in 10.0 mi South 5.8 mph - N/A   Clear
12:35 PM 50.0 °F - 28.4 °F 43% 30.37 in 10.0 mi SW 6.9 mph - N/A   Clear
12:55 PM 51.8 °F - 28.4 °F 41% 30.36 in 10.0 mi SW 5.8 mph - N/A   Clear
1:15 PM 51.8 °F - 26.6 °F 38% 30.35 in 10.0 mi SW 10.4 mph - N/A   Clear
1:35 PM 51.8 °F - 26.6 °F 38% 30.34 in 10.0 mi SSW 6.9 mph - N/A   Clear
1:55 PM 51.8 °F - 24.8 °F 35% 30.33 in 10.0 mi SSW 8.1 mph - N/A   Clear
2:15 PM 53.6 °F - 24.8 °F 33% 30.32 in 10.0 mi South 6.9 mph - N/A   Clear
2:35 PM 53.6 °F - 24.8 °F 33% 30.31 in 10.0 mi SSW 6.9 mph - N/A   Clear
2:55 PM 53.6 °F - 24.8 °F 33% 30.31 in 10.0 mi South 6.9 mph - N/A   Clear
3:15 PM 51.8 °F - 23.0 °F 33% 30.31 in 10.0 mi SSE 5.8 mph - N/A   Clear
3:35 PM 51.8 °F - 23.0 °F 33% 30.30 in 10.0 mi SSW 9.2 mph - N/A   Clear
3:55 PM 51.8 °F - 23.0 °F 33% 30.30 in 10.0 mi SSW 6.9 mph - N/A   Clear
4:15 PM 50.0 °F - 23.0 °F 35% 30.30 in 10.0 mi South 5.8 mph - N/A   Clear
4:35 PM 48.2 °F - 24.8 °F 40% 30.30 in 10.0 mi South 5.8 mph - N/A   Clear
4:55 PM 46.4 °F 43.5 °F 21.2 °F 37% 30.29 in 10.0 mi South 5.8 mph - N/A   Clear
5:15 PM 44.6 °F 41.4 °F 21.2 °F 39% 30.29 in 10.0 mi South 5.8 mph - N/A   Clear
5:35 PM 42.8 °F 39.3 °F 21.2 °F 42% 30.29 in 10.0 mi South 5.8 mph - N/A   Clear
5:55 PM 41.0 °F 39.0 °F 21.2 °F 45% 30.30 in 10.0 mi SSW 3.5 mph - N/A   Clear
6:15 PM 42.8 °F 39.3 °F 21.2 °F 42% 30.31 in 10.0 mi SSW 5.8 mph - N/A   Clear
6:35 PM 42.8 °F 39.3 °F 21.2 °F 42% 30.31 in 10.0 mi South 5.8 mph - N/A   Clear
6:55 PM 41.0 °F 38.0 °F 19.4 °F 42% 30.31 in 10.0 mi South 4.6 mph - N/A   Clear
7:15 PM 37.4 °F 32.8 °F 19.4 °F 48% 30.31 in 10.0 mi South 5.8 mph - N/A   Clear
7:35 PM 39.2 °F 35.9 °F 19.4 °F 45% 30.31 in 10.0 mi SSE 4.6 mph - N/A   Clear
7:55 PM 37.4 °F 33.8 °F 21.2 °F 52% 30.31 in 10.0 mi SE 4.6 mph - N/A   Clear
8:15 PM 37.4 °F 32.1 °F 21.2 °F 52% 30.31 in 10.0 mi SE 6.9 mph - N/A   Clear
8:35 PM 39.2 °F 33.6 °F 21.2 °F 49% 30.30 in 10.0 mi SE 8.1 mph - N/A   Clear
8:55 PM 39.2 °F 33.6 °F 21.2 °F 49% 30.30 in 10.0 mi SE 8.1 mph - N/A   Clear
9:15 PM 39.2 °F 34.2 °F 21.2 °F 49% 30.30 in 10.0 mi SE 6.9 mph - N/A   Partly Cloudy
9:35 PM 37.4 °F 32.1 °F 21.2 °F 52% 30.30 in 10.0 mi SE 6.9 mph - N/A   Partly Cloudy
9:55 PM 37.4 °F 32.1 °F 21.2 °F 52% 30.29 in 10.0 mi SE 6.9 mph - N/A   Partly Cloudy
10:15 PM 37.4 °F 32.8 °F 21.2 °F 52% 30.29 in 10.0 mi SE 5.8 mph - N/A   Clear
10:35 PM 37.4 °F 32.1 °F 21.2 °F 52% 30.29 in 10.0 mi SE 6.9 mph - N/A   Scattered Clouds
11:15 PM 39.2 °F 35.0 °F 21.2 °F 49% 30.28 in 10.0 mi SE 5.8 mph - N/A   Overcast
11:35 PM 39.2 °F 33.6 °F 21.2 °F 49% 30.27 in 10.0 mi SE 8.1 mph - N/A   Overcast
11:55 PM 39.2 °F 35.0 °F 21.2 °F 49% 30.27 in 10.0 mi SE 5.8 mph - N/A   Overcast